Anderson, SC

11:54 PM EST on December 14, 2017 (GMT -0500)
Anderson Regional

Weather History for KAND - February, 2014

Change the Weather History Date:

Sunday, February 23, 2014

  Actual Average Record
Temperature  
Mean Temperature 52 °F -  
Max Temperature 69 °F 58 °F 79 °F (1980)
Min Temperature 34 °F 39 °F 19 °F (1963)
Degree Days  
Heating Degree Days 14    
Growing Degree Days 2 (Base 50)    
Moisture  
Dew Point 33 °F    
Average Humidity 57    
Maximum Humidity 92    
Minimum Humidity 23    
Precipitation  
Precipitation 0.00 in - - ()
Sea Level Pressure  
Sea Level Pressure 30.01 in    
Wind  
Wind Speed 3 mph (SSW)    
Max Wind Speed 12 mph    
Max Gust Speed -    
Visibility 10 miles    
Events      
Averages and records for this station are not official NWS values.
T = Trace of Precipitation, MM = Missing Value Source: NWS Daily Summary

Daily Weather History Graph

Daily Weather History Graph

Search for Another Location

Airport or City:

Trip Planner

Search our weather history database for the weather conditions in past years. The results will help you decide how hot, cold, wet, or windy it might be!

Date:

Astronomy

Feb. 23, 2014 Rise Set
Actual Time 7:07 AM EST 6:21 PM EST
Civil Twilight 6:41 AM EST 6:47 PM EST
Nautical Twilight 6:12 AM EST 7:16 PM EST
Astronomical Twilight 5:43 AM EST 7:45 PM EST
Moon 1:57 AM EST (2/23) 12:30 PM EST (2/23)
Length of Visible Light 12h 05m
Length of Day
11h 14m
Last Quarter, 39% of the Moon is Illuminated
Feb 23
Last Quarter
Mar 1
New
Mar 8
First Quarter
Mar 16
Full
Mar 23
Last Quarter

Hourly Weather History & Observations

Time (EST) Temp. Windchill Dew Point Humidity Pressure Visibility Wind Dir Wind Speed Gust Speed Precip Events Conditions
12:56 AM 39.9 °F - 32.0 °F 73% 30.09 in 10.0 mi Calm Calm - N/A   Clear
1:56 AM 39.0 °F - 32.0 °F 76% 30.09 in 10.0 mi Calm Calm - N/A   Clear
2:56 AM 37.0 °F - 32.0 °F 82% 30.08 in 10.0 mi Calm Calm - N/A   Clear
3:56 AM 37.0 °F - 32.0 °F 82% 30.07 in 10.0 mi Calm Calm - N/A   Partly Cloudy
4:56 AM 36.0 °F - 32.0 °F 86% 30.07 in 10.0 mi Calm Calm - N/A   Clear
5:56 AM 34.0 °F - 32.0 °F 92% 30.08 in 10.0 mi Calm Calm - N/A   Clear
6:56 AM 34.0 °F - 32.0 °F 92% 30.09 in 10.0 mi Calm Calm - N/A   Clear
7:56 AM 36.0 °F - 33.1 °F 89% 30.08 in 10.0 mi Calm Calm - N/A   Clear
8:56 AM 41.0 °F 39.0 °F 36.0 °F 82% 30.08 in 10.0 mi SSW 3.5 mph - N/A   Clear
9:56 AM 48.9 °F - 37.9 °F 66% 30.08 in 10.0 mi South 3.5 mph - N/A   Clear
10:56 AM 55.9 °F - 36.0 °F 47% 30.08 in 10.0 mi SSW 9.2 mph - N/A   Clear
11:56 AM 61.0 °F - 33.1 °F 35% 30.06 in 10.0 mi SSW 8.1 mph - N/A   Clear
12:56 PM 64.9 °F - 30.9 °F 28% 30.01 in 10.0 mi WSW 4.6 mph - N/A   Clear
1:56 PM 66.0 °F - 30.0 °F 26% 29.99 in 10.0 mi WSW 5.8 mph - N/A   Clear
2:56 PM 68.0 °F - 28.9 °F 23% 29.97 in 10.0 mi SW 6.9 mph - N/A   Clear
3:56 PM 69.1 °F - 30.9 °F 24% 29.95 in 10.0 mi SSW 11.5 mph - N/A   Clear
4:56 PM 68.0 °F - 30.9 °F 25% 29.93 in 10.0 mi SSW 9.2 mph - N/A   Clear
5:56 PM 63.0 °F - 32.0 °F 31% 29.93 in 10.0 mi SSW 8.1 mph - N/A   Clear
6:56 PM 59.0 °F - 33.1 °F 38% 29.95 in 10.0 mi South 4.6 mph - N/A   Clear
7:56 PM 55.0 °F - 36.0 °F 49% 29.94 in 10.0 mi SSW 9.2 mph - N/A   Clear
8:56 PM 54.0 °F - 35.1 °F 49% 29.93 in 10.0 mi SSW 10.4 mph - N/A   Clear
9:56 PM 53.1 °F - 37.0 °F 55% 29.94 in 10.0 mi SW 6.9 mph - N/A   Clear
10:56 PM 52.0 °F - 39.0 °F 61% 29.94 in 10.0 mi SW 6.9 mph - N/A   Clear
11:56 PM 50.0 °F - 39.9 °F 68% 29.93 in 10.0 mi SW 5.8 mph - N/A   Clear